User: anonymous   Login
Location: Albany
(35.0000°S, 118.0000°E)
Time: 17:22:19
(UTC-04:00)
Language:

Cosmos 1346 Rocket - Orbit

View from above orbital plane
View from above orbital plane
View from above satellite
View from above satellite

Ground track
Ground track

The orbit data is extracted from the following two-line orbital elements,

1 13121U 82027B   16181.95759010 +.00000876 +00000-0 +55167-4 0  9999
2 13121 081.1648 163.7083 0025837 254.5936 105.2434 15.07913539863600
Epoch (UTC): 29 June 2016 22:58:55
Eccentricity: 0.0025837
inclination: 81.1648°
perigee height: 525 km
apogee height: 560 km
right ascension of ascending node: 163.7083°
argument of perigee: 254.5936°
revolutions per day: 15.07913539
mean anomaly at epoch: 105.2434°
orbit number at epoch: 86360

The dashed part of the orbit path shows where the satellite is in the earth's shadow,  

DLR